Погода в Клируотере

США     27°57′56″N   82°48′00″W
темп.,
°C
ветер,
м/с
пор.,
м/с
влажн.,
%
обл.,
%
осадки,
мм/ч
давл.,
гПа
погр.,
м
8 марта, пн
пн801:00+14св812480 0.0 1028625
04:00+12св812510 0.0 1029820
07:00+12св812530 0.0 1030806
10:00+14св811480 0.0 10321076
13:00+18всв69450 0.0 10321361
16:00+20всв68510 0.0 10301166
19:00+18в685615 0.0 10311510
22:00+16всв810608 0.0 1033799
9 марта, вт
вт901:00+14св710664 0.0 1032462
04:00+14св610690 0.0 1031399
07:00+13всв69720 0.0 1032356
10:00+17всв68600 0.0 10341035
13:00+21в57510 0.0 1031892
16:00+21в674917 0.0 1029807
19:00+20в79599 0.0 1030777
22:00+18в8106423 0.0 1031962
10 марта, ср
ср1001:00+17в7106618 0.0 1030922
04:00+16в59692 0.0 1030650
07:00+15всв59721 0.0 1030509
10:00+18в69600 0.0 10311125
13:00+22в68500 0.0 1029784
16:00+22в68470 0.0 1026792
19:00+21в795517 0.0 1027728
22:00+18в8116367 0.0 1028768
11 марта, чт
чт1101:00+17в7106846 0.0 1028673
04:00+17в610730 0.0 1027559
07:00+16в610770 0.0 1027449
10:00+19в68650 0.0 1028722
13:00+23в56530 0.0 1026719
16:00+24в46500 0.0 1024869
19:00+22в795827 0.0 1025624
22:00+19в711710 0.0 1026521
12 марта, пт
пт1201:00+18в610770 0.0 1026531
04:00+18в59800 0.0 1025465
07:00+17в69820 0.0 1026408
10:00+20вюв57700 0.0 1027502
13:00+23вюв45530 0.0 1026731
16:00+23ссз445633 0.0 1024680
19:00+22ссв356319 0.0 1024434
22:00+21в7106867 0.0 1025388